IRIDIUM 33 DEB, 38241

Orbit data source: Space-Track

IRIDIUM 33 DEB, 38241 is space debris in LEO originally from a launch on Sun, 14 Sep 1997 UTC launched from the Tyuratam Missile And Space Complex (TTMTR). The debris from Iridium 33, an American commercial communications satellite, has been tracked extensively since its accidental collision with the defunct Russian satellite Cosmos 2251 in 2009. This event, occurring at high speed in low Earth orbit (LEO), generated thousands of pieces of space debris, significantly increasing the risk of further collisions. The Iridium 33 debris cloud has impacted space traffic management and orbital debris mitigation strategies, making it a subject of ongoing study in space situational awareness.

Loading next visibility...
Identifier
38241, 1997-051ZR
Orbit
LEO
Country
Flag of USUS
Related business
Manufacturer
Unknown
Mission
Spacecraft
Bus & Motor
Unknown
Mass
Unknown
Launch date (UTC)
1997-09-14 (28 years ago)
Launch vehicle
Unknown
Launch site
Tyuratam Missile And Space Complex (TTMTR)
Object type
Payload
Rocket body
Debris
Shape & HBR
Unknown shape, 0.1 m
Radar Cross Section
Small (<0.1 m²)

Expand to show TLE details & history
Last TLE update: 23 hours ago

TLE from 23 hours ago
0 IRIDIUM 33 DEB
1 38241U 97051ZR  26037.54931359  .00004543  00000-0  10426-2 0  9998
2 38241  86.3259 325.9788 0001391 189.0948 171.0234 14.55357557610123
Epoch: 2026-02-06T13:11Z
TLE epoch observation values (Epoch: 2026-02-06T13:11:00.694Z)
Latitude
-0.00005°
Longitude
-8.45969°
Altitude
712.258 km
Speed
7.499 km/s
True Right ascension
21h 43m 54s
True Declination
0° 00' 00"
Sunlit
Object was in daylight at epoch
Visualization orbit readout
Latitude
Unknown
Longitude
Unknown
Altitude
Unknown
Speed
Unknown
Apparent Right ascension
Unknown
Apparent Declination
Unknown
Sunlit
N/A
Visualization observer readout
Local Sidereal Time
14:40:56
Azimuth
Unknown
Elevation
Unknown
Doppler factor
Unknown
Orbital elements
Apogee altitude
706.125 km
Perigee altitude
704.155 km
Semi-major axis
7,083.277 km
Eccentricity
0.00014
Inclination
86.3259°
RAAN
325.9788°
Arg. of periapsis
189.0948°
True anomaly
171.02589°
Mean anomaly
171.0234°
Eccentric anomaly
171.02464°
Mean motion
3.64076 °/min
Orbital period
98.88 mins
BSTAR
0.0010426
Loading maneuver chart data...
Computing Atmospheric mass density...
Loading historical data...
Loading historical data...
Loading historical data...
Loading historical data...
Loading historical data...
Loading historical data...
Loading historical data...

Documentation

Showing up to 5 results
|